Dewpoint
7 6 4 -1 -3 -6 -6 -6 -6 -4 -5 -5 -5 -4 -5 -7 -7 -8 -7 -8 -7 -4 -4 -4 -5 -5 -6 -6 -5 -6 -1 -1 0 2 2 1 2 -0 -0 -0 1 2 2 2 3 3 2 -3 -0 1 -1 0 0 1
6 5 3 0 -5 -6 -6 -6 -6 -5 -5 -4 -4 -4 -5 -7 -7 -7 -7 -7 -6 -5 -4 -5 -5 -4 -5 -5 -6 -6 -4 -1 -1 1 1 0 2 1 -1 1 -2 1 -1 0 0 0 -3 -3 -1 -2 -1 -1 1 1
6 5 1 -1 -6 -6 -6 -6 -4 -5 -4 -5 -4 -4 -4 -6 -7 -7 -8 -6 -6 -5 -5 -5 -4 -5 -5 -5 -5 -5 -5 -3 -3 -3 -1 0 1 1 1 0 -1 -2 -2 -0 -1 -2 -2 -1 -2 -1 -1 -1 -0 1
6 3 1 -3 -6 -6 -6 -5 -4 -3 -3 -4 -4 -4 -5 -5 -7 -6 -7 -8 -7 -6 -5 -4 -5 -5 -5 -5 -4 -4 -5 -4 -4 -5 -5 -3 -0 -1 0 -0 0 -0 -1 -0 -1 -2 -2 -2 -2 -3 -3 -3 1 1
5 3 0 -4 -5 -5 -5 -4 -3 -2 -4 -4 -4 -5 -5 -5 -7 -6 -7 -6 -6 -5 -5 -4 -4 -4 -4 -5 -5 -4 -4 -5 -5 -5 -4 -4 -4 -3 -3 -3 -2 -4 -3 -1 -1 -3 -5 -6 -8 -8 -7 -4 -1 1
3 2 -1 -5 -5 -5 -4 -3 -2 -3 -5 -4 -4 -5 -6 -7 -6 -6 -5 -6 -6 -6 -6 -5 -4 -4 -3 -3 -3 -4 -4 -4 -4 -4 -4 -4 -5 -4 -3 -3 -5 -5 -6 -6 -5 -5 -3 -3 -5 -6 -2 -3 -4 1
2 2 -2 -6 -5 -4 -4 -2 -2 -5 -5 -4 -5 -6 -7 -6 -5 -5 -6 -6 -7 -6 -5 -5 -4 -4 -2 -2 -2 -3 -4 -4 -4 -4 -4 -5 -5 -3 -2 -2 -7 -6 -3 -1 -1 -1 -1 -1 -0 -2 -1 -1 -2 0
3 1 -4 -4 -4 -3 -3 -2 -4 -6 -5 -5 -6 -7 -6 -5 -5 -6 -6 -6 -6 -6 -6 -10 -8 -3 -4 -2 -1 -2 -3 -3 -3 -3 -4 -3 -4 -5 -4 -5 -1 -1 -1 -1 -2 -1 -1 -0 0 0 0 1 1 1
3 -1 -4 -4 -3 -3 -3 -5 -6 -6 -6 -7 -7 -7 -6 -6 -5 -4 -4 -5 -6 -6 -5 -5 -5 -7 -4 -3 -2 -1 -2 -3 -4 -3 -4 -4 -4 -2 -1 -1 -1 -2 -2 -2 -2 -2 -1 -1 -1 -0 -0 0 1 1
1 -2 -3 -3 -3 -3 -4 -4 -7 -7 -6 -9 -8 -8 -7 -5 -5 -5 -5 -5 -4 -5 -4 -4 -4 -5 -4 -4 -3 -1 -2 -2 -4 -3 -4 -3 -3 -4 -3 -0 -0 -1 -2 -2 -2 -2 -2 -1 -1 -1 -1 -0 1 1
-1 -2 -3 -2 -3 -3 -4 -6 -8 -6 -5 -8 -9 -7 -5 -4 -5 -4 -4 -5 -4 -5 -3 -3 -3 -6 -4 -5 -4 -2 -1 -1 -3 -1 -2 -1 -1 -4 -2 -1 -1 -2 -2 -4 -2 -2 -3 -2 -2 -2 -1 -1 -0 0
-1 -2 -2 -2 -3 -5 -6 -7 -8 -7 -8 -9 -8 -5 -5 -4 -5 -9 -10 -7 -7 -8 -3 -3 -3 -5 -4 -3 -1 -1 -2 -1 -1 -2 -1 -1 -4 -6 -2 -1 -3 -2 -3 -6 -6 -2 -2 -2 -2 -2 -2 -1 -1 -0
-2 -2 -2 -2 -5 -6 -6 -8 -8 -8 -10 -8 -9 -6 -7 -8 -11 -16 -12 -10 -10 -5 -4 -6 -7 -5 -4 -3 -2 -1 1 1 -1 -0 -1 -4 -5 -6 -4 -6 -7 -5 -3 -3 -8 -8 -3 -3 -3 -2 -2 -2 -2 -2
-2 -2 -2 -3 -5 -6 -9 -10 -7 -10 -10 -10 -11 -10 -9 -10 -10 -10 -10 -9 -7 -5 -6 -5 -5 -4 -3 -4 -3 -1 -2 -1 -0 -2 -4 -6 -7 -5 -5 -7 -7 -7 -6 -3 -4 -7 -9 -4 -3 -3 -3 -3 -7 -8
-2 -2 -2 -3 -5 -7 -10 -7 -9 -10 -9 -10 -11 -10 -9 -6 -4 -6 -4 -6 -6 -6 -6 -5 -5 -5 -5 -4 -3 -4 -3 -1 -4 -6 -7 -6 -6 -9 -8 -9 -9 -9 -8 -7 -3 -3 -4 -7 -4 -3 -3 -4 -16 -15
-1 -1 -2 -4 -6 -8 -8 -10 -9 -10 -10 -10 -8 -8 -7 -7 -6 -5 -6 -7 -7 -5 -5 -5 -6 -7 -5 -4 -4 -5 -3 -3 -6 -8 -7 -9 -9 -8 -10 -12 -13 -12 -11 -9 -6 -3 -2 -3 -4 -4 -4 -5 -8 -8
-2 -2 -3 -4 -4 -5 -8 -8 -10 -10 -11 -10 -9 -10 -8 -8 -9 -7 -7 -6 -6 -5 -8 -7 -10 -9 -7 -4 -4 -4 -3 -6 -5 -9 -10 -10 -11 -11 -12 -12 -10 -9 -8 -8 -10 -7 -3 -3 -4 -4 -4 -4 -4 -7
-2 -3 -3 -4 -7 -8 -9 -11 -13 -10 -8 -8 -9 -10 -8 -8 -7 -7 -6 -7 -6 -6 -7 -11 -7 -7 -7 -9 -8 -8 -5 -3 -8 -10 -10 -12 -12 -12 -12 -10 -10 -9 -7 -7 -7 -9 -6 -4 -3 -4 -5 -5 -4 -7
-5 -4 -4 -6 -10 -13 -14 -12 -10 -7 -5 -5 -5 -7 -7 -7 -8 -8 -7 -6 -6 -6 -6 -6 -9 -10 -7 -8 -9 -13 -12 -10 -9 -10 -11 -11 -12 -12 -10 -10 -11 -10 -10 -8 -8 -9 -10 -10 -4 -3 -4 -8 -12 -12
-3 -3 -4 -6 -12 -15 -12 -9 -8 -10 -6 -7 -6 -7 -6 -6 -7 -7 -6 -6 -5 -5 -5 -6 -8 -8 -9 -12 -12 -11 -10 -9 -9 -9 -11 -12 -12 -11 -14 -16 -17 -17 -18 -15 -9 -8 -9 -12 -10 -3 -3 -4 -6 -16
-3 -2 -3 -8 -12 -12 -9 -7 -7 -6 -7 -7 -6 -6 -7 -7 -7 -7 -6 -5 -4 -5 -6 -7 -9 -11 -11 -11 -10 -10 -10 -9 -10 -9 -10 -11 -12 -14 -13 -10 -7 -9 -16 -17 -16 -12 -9 -10 -10 -7 -4 -4 -4 -18
-1 -2 -4 -9 -8 -7 -6 -5 -7 -7 -6 -7 -6 -6 -7 -8 -8 -7 -7 -6 -6 -6 -7 -9 -11 -11 -11 -11 -11 -11 -11 -11 -11 -11 -11 -12 -12 -10 -11 -12 -9 -7 -15 -17 -17 -15 -10 -9 -10 -7 -4 -4 -4 -12
-2 -3 -7 -5 -6 -6 -5 -5 -6 -6 -8 -7 -7 -9 -9 -8 -8 -8 -8 -7 -6 -10 -11 -11 -11 -11 -12 -11 -10 -10 -9 -9 -10 -11 -12 -9 -8 -10 -10 -11 -13 -15 -17 -17 -15 -15 -15 -11 -9 -9 -7 -4 -4 -5
-5 -6 -5 -5 -6 -6 -5 -5 -5 -6 -7 -8 -9 -10 -12 -10 -10 -10 -9 -9 -11 -11 -11 -11 -12 -13 -11 -10 -11 -12 -12 -12 -12 -11 -11 -11 -12 -12 -12 -14 -15 -17 -17 -15 -14 -14 -15 -10 -8 -9 -8 -6 -5 -4
-10 -6 -7 -6 -6 -7 -7 -7 -7 -8 -7 -8 -9 -11 -12 -11 -14 -14 -11 -11 -13 -14 -14 -14 -13 -12 -11 -11 -11 -11 -11 -11 -11 -11 -11 -12 -13 -13 -15 -16 -18 -19 -17 -15 -13 -13 -13 -9 -6 -7 -5 -5 -6 -6
-7 -6 -10 -7 -7 -9 -9 -9 -10 -9 -10 -14 -12 -12 -12 -14 -12 -10 -12 -12 -15 -14 -13 -13 -13 -12 -11 -11 -11 -11 -11 -11 -11 -11 -13 -14 -14 -12 -12 -13 -16 -16 -14 -13 -12 -12 -13 -12 -9 -7 -7 -6 -6 -7
-8 -6 -6 -7 -7 -8 -9 -9 -9 -12 -15 -12 -14 -13 -15 -12 -11 -12 -12 -14 -14 -13 -13 -13 -13 -12 -12 -11 -12 -12 -11 -11 -12 -13 -14 -14 -15 -14 -14 -14 -14 -14 -12 -12 -12 -11 -12 -12 -12 -9 -8 -12 -16 -14
-7 -6 -7 -6 -7 -8 -11 -12 -12 -12 -12 -10 -11 -12 -12 -11 -11 -13 -15 -14 -14 -14 -13 -12 -12 -12 -12 -13 -14 -14 -15 -15 -15 -15 -15 -16 -16 -16 -15 -14 -13 -12 -11 -11 -11 -11 -11 -11 -12 -11 -9 -9 -13 -17
-8 -7 -6 -8 -7 -7 -8 -10 -10 -9 -10 -10 -11 -12 -11 -12 -14 -14 -14 -13 -12 -12 -13 -14 -17 -19 -19 -18 -17 -16 -15 -15 -15 -15 -15 -16 -16 -15 -14 -12 -12 -12 -12 -12 -12 -12 -10 -11 -11 -11 -9 -6 -8 -9
-6 -7 -8 -7 -9 -8 -8 -8 -8 -9 -10 -10 -11 -12 -12 -12 -12 -12 -11 -11 -12 -14 -15 -17 -23 -22 -20 -18 -17 -17 -16 -15 -15 -15 -15 -15 -15 -15 -15 -14 -12 -12 -12 -12 -12 -12 -12 -11 -11 -11 -10 -9 -8 -7
-7 -7 -8 -8 -9 -9 -9 -9 -9 -9 -9 -9 -10 -10 -10 -10 -11 -12 -13 -15 -16 -17 -18 -22 -22 -20 -19 -19 -17 -17 -16 -15 -15 -14 -14 -15 -15 -17 -16 -16 -15 -15 -14 -13 -12 -12 -12 -11 -12 -12 -11 -11 -11 -11
-7 -7 -8 -10 -8 -9 -9 -9 -9 -9 -9 -9 -9 -9 -9 -9 -10 -11 -14 -19 -21 -21 -21 -19 -18 -17 -17 -17 -16 -15 -15 -15 -14 -14 -14 -15 -15 -15 -14 -13 -13 -13 -13 -13 -14 -14 -13 -12 -11 -10 -11 -12 -12 -13
-9 -8 -8 -8 -8 -8 -9 -9 -10 -11 -11 -10 -10 -10 -10 -10 -10 -14 -21 -23 -21 -19 -18 -17 -16 -15 -14 -14 -14 -14 -14 -14 -14 -14 -14 -15 -15 -14 -14 -14 -14 -14 -14 -14 -13 -12 -12 -12 -12 -12 -12 -12 -12 -12
Wind_Speed
43 38 37 32 28 25 19 14 9 7 8 8 7 7 7 9 9 8 13 8 6 7 8 8 6 4 4 4 2 8 2 6 5 3 2 1 1 1 2 2 4 6 4 4 1 2 6 3 0 2 4 10 14 17
42 42 38 33 29 26 19 15 13 11 9 6 5 6 9 9 9 10 14 12 13 9 9 10 13 12 3 2 2 3 3 2 1 1 2 1 2 2 1 2 1 2 4 1 6 5 4 4 9 13 18 23 21 18
47 45 38 33 32 26 21 18 16 13 9 8 6 8 10 9 10 10 14 18 21 15 10 5 8 8 6 3 5 4 2 2 2 4 3 0 1 1 1 3 3 2 3 2 3 3 7 24 17 13 22 31 26 20
49 44 39 35 32 27 23 21 18 14 12 9 9 9 8 9 11 10 13 10 9 8 5 5 8 9 9 7 4 2 0 2 3 2 1 1 1 3 1 2 2 3 7 4 5 6 22 4 23 29 34 34 28 19
47 44 39 36 33 29 26 23 20 15 14 11 10 10 9 10 10 9 14 15 8 5 5 5 8 9 9 8 7 2 2 5 2 1 1 0 0 2 2 1 2 3 2 3 4 12 9 19 32 37 37 36 31 21
53 47 40 39 36 31 27 24 20 17 15 12 9 12 13 11 9 5 4 13 6 7 5 2 3 6 9 8 7 5 5 3 3 3 2 1 1 1 2 1 4 5 18 19 11 22 30 31 27 26 26 32 32 26
52 47 44 41 36 33 28 25 21 18 16 12 12 18 15 12 9 5 7 7 8 5 4 3 3 5 11 6 5 4 3 2 3 3 3 2 1 1 1 2 6 26 23 26 25 18 13 12 22 31 31 34 30 23
54 48 46 41 38 33 29 25 22 19 16 16 18 19 18 18 16 19 19 11 8 6 6 3 3 2 11 4 4 3 2 2 2 1 1 1 2 2 2 10 20 24 26 20 20 22 26 30 32 30 31 30 21 15
52 48 46 43 39 35 30 26 22 20 19 20 21 18 13 7 3 8 12 13 15 6 5 5 1 3 8 5 2 0 1 1 1 1 0 1 2 2 7 19 21 23 17 24 28 25 24 22 25 31 30 20 17 13
52 51 47 43 39 35 30 27 23 22 25 23 18 3 5 6 11 7 4 3 4 5 4 4 2 2 3 4 3 2 2 1 1 1 5 1 3 12 12 15 20 21 19 22 23 23 26 28 27 27 23 15 12 9
55 51 47 43 39 35 31 28 25 27 27 18 6 3 15 12 5 3 3 5 4 3 2 2 4 1 1 1 2 1 1 1 2 2 1 2 2 2 17 21 20 19 18 19 18 18 18 20 22 23 17 11 11 7
54 50 47 42 38 35 31 28 26 28 15 10 8 16 8 4 3 5 1 3 2 3 2 2 1 1 1 2 3 1 1 0 2 8 1 2 3 14 19 22 24 22 20 21 20 19 18 17 16 16 11 7 6 5
53 49 45 41 38 35 31 25 26 14 19 19 4 4 1 3 6 4 2 3 1 4 4 1 2 3 3 1 4 1 3 2 8 2 3 3 3 16 18 23 26 25 24 22 22 21 18 17 14 14 13 9 7 6
50 46 43 40 37 33 28 27 23 27 7 4 5 4 3 3 2 4 4 4 4 5 3 1 1 2 1 2 2 2 3 1 2 1 4 3 11 17 21 24 27 28 26 25 23 22 21 20 17 13 12 10 8 8
47 43 40 37 34 31 28 27 29 17 3 3 4 3 2 4 3 6 6 5 6 5 1 2 2 1 2 1 3 2 2 3 5 4 3 7 16 23 25 29 29 28 27 27 25 23 23 21 20 18 13 6 10 9
47 42 39 36 33 29 26 28 24 8 3 3 4 6 6 3 2 5 6 5 7 5 2 2 2 1 2 2 3 5 3 6 4 3 6 14 19 22 26 28 29 27 25 25 25 24 24 22 20 19 15 7 8 10
49 41 39 35 30 29 26 21 9 4 4 4 4 9 8 7 5 6 8 6 9 5 2 3 2 7 1 2 4 4 5 3 5 7 13 16 21 25 26 22 20 23 26 27 26 24 23 22 21 20 16 12 13 10
32 47 43 38 34 29 18 6 4 3 4 5 6 11 8 9 10 7 8 9 9 5 5 3 4 3 4 4 3 4 10 8 12 17 22 26 26 27 20 19 20 24 27 27 25 25 24 22 22 19 12 9 11 7
47 46 39 34 28 14 5 3 2 4 4 7 10 13 7 8 8 6 7 9 10 4 2 2 1 3 4 9 10 18 21 17 24 26 26 26 26 21 18 18 21 24 27 30 30 28 26 24 22 20 17 13 14 13
43 40 36 30 17 6 5 4 4 4 5 6 7 7 6 5 8 8 10 10 11 5 5 3 6 7 12 22 27 28 28 28 26 26 27 27 26 18 17 19 23 26 30 30 30 29 27 23 21 19 19 16 13 14
41 36 31 19 11 7 5 4 4 5 7 5 7 6 3 3 4 6 8 12 8 7 8 13 20 23 24 26 28 29 28 23 23 22 24 28 19 16 20 23 27 34 35 33 32 30 28 24 22 19 19 21 17 14
41 33 25 12 5 5 5 4 7 9 4 5 4 4 3 3 4 4 6 8 7 12 16 21 21 23 26 28 27 27 26 24 23 21 20 15 16 20 25 26 28 35 39 35 32 30 27 26 21 19 19 19 19 14
35 23 10 5 5 5 3 5 3 3 3 3 2 2 1 1 3 6 3 8 11 17 16 19 21 22 20 17 11 11 12 14 14 13 12 18 25 28 32 36 33 35 36 32 30 28 27 25 23 21 18 17 19 18
22 6 4 5 5 3 5 2 4 4 4 2 2 1 2 2 2 2 3 7 16 19 19 18 13 13 6 4 7 15 20 21 22 25 26 28 33 36 37 39 37 34 32 31 32 28 23 23 21 18 18 19 19 19
6 3 4 5 4 5 3 2 3 2 3 3 2 3 2 4 1 2 3 6 3 8 6 7 10 12 13 13 18 25 26 28 30 34 35 33 35 35 36 37 36 33 34 34 29 23 19 18 16 16 17 18 19 19
5 2 3 6 4 4 5 4 5 4 3 2 5 2 3 3 1 5 4 6 5 4 4 8 13 16 20 23 30 35 39 39 38 40 39 32 32 33 36 37 39 39 33 28 26 23 22 19 15 14 15 15 17 18
5 3 4 5 7 10 6 6 6 4 5 6 3 5 3 3 6 5 7 7 8 8 15 22 23 22 28 33 36 38 40 39 32 32 34 33 31 29 29 32 35 36 30 26 25 24 23 21 19 15 15 14 15 15
4 8 7 11 5 6 5 4 5 7 4 7 11 4 7 7 5 6 3 8 15 23 31 34 35 35 34 34 35 33 29 24 25 28 29 28 25 24 26 28 26 24 23 22 22 20 19 19 20 19 17 15 13 13
4 11 12 5 4 4 6 7 8 8 8 15 8 5 8 11 14 14 21 24 29 33 35 35 32 28 27 28 28 23 20 20 25 30 31 30 30 30 25 25 24 23 24 24 21 22 21 18 17 18 20 20 18 17
6 14 5 5 5 5 7 13 6 9 11 15 16 17 22 28 31 30 33 34 34 30 28 26 24 24 24 25 22 18 16 20 23 25 27 29 29 28 25 24 21 20 20 19 18 16 16 17 15 15 15 17 18 19
11 11 5 6 6 6 11 12 13 13 14 16 20 23 30 34 38 36 26 20 20 18 17 18 20 20 22 23 24 27 28 24 25 26 27 28 26 23 21 19 18 18 17 15 14 14 12 12 14 14 14 13 14 14
8 9 8 3 4 5 7 5 5 6 9 14 17 20 21 18 17 21 12 14 16 18 19 19 24 27 27 28 27 28 28 26 26 27 25 23 21 21 20 20 20 19 18 17 15 14 13 13 13 13 13 13 13 14
6 5 4 2 2 2 2 2 2 4 4 5 7 12 14 9 9 8 15 20 18 19 24 25 25 23 24 26 27 27 25 25 25 22 20 20 20 21 21 20 18 17 16 14 13 13 12 12 12 12 12 13 13 13
Wind_Direction
188 188 191 190 191 184 179 188 186 160 129 104 97 92 84 60 62 60 42 56 119 96 70 59 57 45 42 47 44 339 340 9 14 62 78 127 107 316 346 217 187 180 162 215 169 206 286 213 80 165 237 312 322 325
185 190 184 188 187 182 180 183 169 155 132 119 98 86 93 71 75 64 63 86 101 91 111 87 58 47 107 50 26 38 128 57 27 348 64 31 31 33 316 283 14 270 191 209 187 219 260 318 287 287 316 309 307 315
187 186 181 185 185 176 181 181 166 156 149 138 125 104 89 79 87 64 89 111 106 100 90 60 34 59 48 8 349 354 17 56 90 92 143 73 117 48 290 272 309 313 11 247 357 346 330 319 318 353 344 341 322 302
183 181 180 184 180 177 182 179 170 162 165 149 143 120 97 100 99 75 85 116 114 110 99 69 60 52 33 16 344 327 43 39 76 25 90 118 154 40 257 298 299 268 340 317 267 326 333 318 325 328 325 330 337 303
179 180 179 183 179 178 181 178 176 170 164 155 144 122 112 122 118 93 75 71 76 106 121 111 77 43 23 23 18 6 268 262 302 344 48 51 26 33 341 331 269 348 27 11 286 311 294 296 306 310 314 315 323 318
177 178 178 183 176 179 179 178 177 167 157 152 143 119 121 119 131 123 86 57 77 82 108 75 81 35 14 17 23 41 52 26 355 348 12 36 20 83 71 272 284 17 335 327 294 295 301 298 304 309 298 304 306 310
177 178 180 178 177 179 175 177 172 161 156 151 139 125 118 103 105 113 95 86 86 86 88 80 26 23 8 15 31 45 58 32 353 11 3 344 356 49 90 266 302 322 321 315 321 316 311 310 307 313 312 309 304 294
174 175 179 175 176 174 172 169 164 154 154 148 135 128 119 109 90 86 86 89 100 80 77 86 298 71 14 12 18 11 63 64 56 38 332 0 16 14 262 275 316 318 319 319 320 318 307 307 314 316 311 310 294 278
170 176 176 174 173 172 167 162 159 155 151 147 134 130 117 113 91 98 86 74 68 77 95 76 83 262 1 17 316 340 125 59 69 46 25 55 32 263 262 297 304 326 318 314 324 323 318 311 306 312 315 297 279 258
174 175 174 172 171 168 163 163 159 157 153 147 136 144 114 119 118 104 71 63 55 47 65 100 195 277 16 317 313 352 171 104 145 103 118 210 242 258 303 320 317 327 325 331 333 326 321 318 319 320 314 296 270 255
172 173 171 170 168 164 163 162 159 154 158 154 160 107 129 125 101 71 72 54 19 39 80 122 201 254 78 59 274 314 339 122 23 117 204 219 265 299 341 335 337 340 333 332 330 323 315 310 314 317 315 296 281 268
171 170 168 167 164 162 163 165 161 161 156 154 142 118 121 100 83 81 350 345 69 206 156 193 201 285 173 272 266 265 222 92 272 149 228 251 259 351 344 339 346 345 337 333 337 337 335 329 327 323 316 302 294 294
169 166 165 164 161 164 165 160 160 152 137 132 117 99 102 49 46 103 147 313 347 193 179 226 232 164 167 233 265 246 212 207 130 184 225 214 328 340 341 341 340 340 338 332 333 335 342 341 334 321 322 318 332 317
162 163 163 161 163 162 161 158 160 147 138 154 143 67 98 320 225 180 174 174 154 166 176 172 100 116 108 70 308 250 270 117 171 199 230 238 341 331 331 335 336 335 333 330 327 329 326 333 332 321 307 308 322 314
158 159 159 164 161 161 160 161 155 156 153 122 113 118 172 138 119 143 143 144 157 159 123 125 108 139 155 201 218 255 226 242 201 226 229 327 327 331 329 329 329 329 327 323 322 320 322 318 324 322 294 290 324 328
156 156 163 160 159 160 157 152 160 165 122 103 98 99 126 117 140 175 180 167 173 163 143 156 80 79 217 227 211 222 218 220 241 212 321 316 314 319 328 327 323 325 323 318 315 312 312 315 308 311 307 274 301 304
159 153 159 154 149 142 143 152 154 133 118 113 114 124 135 105 141 171 178 172 175 171 189 133 96 217 141 218 232 210 220 222 175 306 318 325 325 326 325 321 327 330 326 320 311 306 303 310 298 299 288 270 270 285
159 156 156 154 148 141 139 133 133 122 93 116 130 149 146 138 146 163 177 177 177 202 176 216 147 163 207 193 250 237 243 265 308 327 328 324 323 327 321 324 329 336 335 327 320 306 298 296 296 277 292 300 280 277
160 155 151 147 141 134 118 120 107 101 91 123 132 149 148 159 171 152 175 191 201 197 210 220 110 208 233 225 256 297 307 313 321 320 313 312 317 322 320 324 326 327 329 334 332 323 301 292 292 286 265 274 282 282
149 148 149 150 142 107 101 97 106 100 123 141 140 153 149 158 169 182 190 192 193 183 211 216 219 229 250 289 303 305 306 308 310 310 310 310 317 317 325 330 331 332 328 324 324 327 322 302 290 291 279 256 260 278
148 151 156 150 105 83 93 115 87 90 124 124 139 158 145 152 183 189 194 195 191 219 229 237 258 280 297 303 306 306 305 304 300 298 297 303 314 324 331 332 337 335 328 323 318 318 324 313 304 293 290 265 250 270
149 154 147 124 93 86 88 83 112 120 123 115 124 128 142 170 176 159 174 194 235 241 240 263 287 303 305 306 309 307 306 301 298 295 296 301 311 324 321 323 319 316 316 318 317 313 313 320 307 291 284 275 254 249
140 138 115 91 93 68 71 111 98 80 91 104 115 88 139 149 138 156 233 233 244 260 273 284 300 309 313 328 358 14 12 1 350 336 321 312 316 317 315 313 315 312 311 314 316 306 303 307 306 293 281 273 264 243
134 101 95 87 85 109 134 86 86 92 98 78 78 326 287 151 147 181 254 260 272 287 287 295 295 302 299 315 328 333 336 328 323 317 315 312 308 305 305 306 307 307 307 311 313 307 299 300 300 284 279 272 266 257
113 65 113 86 122 114 123 90 86 96 145 145 141 270 231 165 130 223 238 270 288 340 336 299 303 284 268 279 305 314 319 321 320 313 308 308 306 305 304 305 307 308 308 312 308 301 290 299 298 282 278 272 270 256
88 102 102 146 154 138 158 129 165 156 126 153 223 198 160 115 152 242 230 236 295 338 17 338 312 285 274 280 299 309 316 318 316 307 303 305 300 298 299 301 302 304 314 307 301 296 284 279 288 290 283 282 275 258
109 145 139 142 140 133 93 93 138 139 165 197 190 156 111 185 232 247 239 269 268 232 310 315 311 302 294 298 302 305 309 308 305 300 299 299 300 299 297 294 296 302 300 295 293 294 292 277 266 272 277 271 266 259
116 156 150 157 119 147 135 151 165 193 199 179 146 182 188 201 229 207 222 296 295 301 301 302 303 303 304 304 304 306 307 312 308 303 303 304 310 310 309 304 297 295 292 292 295 297 294 284 271 259 264 269 262 254
128 156 139 124 122 165 192 181 211 216 200 178 178 206 228 238 264 276 292 296 298 300 299 301 303 306 301 299 303 308 314 315 314 314 312 313 318 321 320 315 306 297 291 291 290 286 285 289 279 262 252 254 259 262
162 165 112 129 146 206 220 202 226 228 220 224 240 255 265 274 285 291 291 296 296 293 296 296 304 309 311 314 309 304 309 316 316 312 310 312 315 319 321 319 317 317 308 295 291 298 276 275 280 277 269 264 264 265
156 168 123 166 217 224 221 226 236 249 254 256 262 266 276 289 295 297 299 299 302 298 292 307 318 319 314 311 314 313 307 310 314 312 308 310 313 314 315 318 323 325 325 320 305 301 297 280 274 274 273 271 267 265
157 182 166 184 244 244 248 241 236 242 258 266 267 272 274 277 283 292 285 318 320 318 319 317 311 308 305 303 305 307 306 306 307 307 306 307 309 309 310 312 312 312 310 308 307 306 298 286 277 274 274 272 271 271
135 143 169 285 299 286 249 211 310 308 260 256 245 249 246 239 250 262 308 311 309 306 304 304 305 303 302 301 300 299 299 300 300 301 303 304 306 310 311 313 315 314 313 312 306 301 297 293 288 283 280 280 280 281
Height
1418 1427 1437 1445 1451 1456 1461 1465 1467 1470 1470 1470 1470 1470 1468 1469 1469 1469 1467 1466 1468 1474 1481 1481 1481 1483 1483 1483 1485 1484 1482 1479 1479 1481 1481 1483 1484 1485 1484 1480 1481 1482 1488 1486 1485 1485 1493 1462 1463 1464 1461 1455 1453 1450
1413 1425 1431 1439 1447 1453 1460 1463 1466 1468 1468 1469 1470 1470 1470 1470 1470 1470 1467 1468 1470 1474 1483 1484 1484 1485 1483 1483 1480 1479 1481 1483 1486 1484 1486 1485 1486 1486 1490 1485 1480 1484 1479 1478 1482 1477 1464 1464 1462 1459 1459 1456 1452 1449
1409 1420 1427 1435 1443 1450 1457 1462 1464 1466 1468 1468 1469 1470 1470 1471 1471 1471 1469 1471 1473 1478 1485 1486 1486 1487 1486 1486 1487 1490 1488 1486 1484 1485 1488 1487 1486 1488 1490 1488 1483 1477 1476 1475 1474 1465 1464 1461 1461 1460 1458 1456 1451 1448
1404 1415 1424 1433 1440 1448 1455 1460 1462 1464 1466 1467 1469 1469 1470 1472 1472 1472 1471 1472 1474 1476 1483 1490 1489 1489 1488 1489 1489 1489 1490 1490 1489 1488 1487 1488 1488 1489 1490 1490 1489 1481 1478 1477 1474 1468 1463 1459 1459 1459 1454 1453 1449 1446
1399 1411 1421 1430 1438 1446 1453 1457 1461 1463 1465 1467 1468 1468 1470 1471 1472 1473 1473 1473 1475 1478 1482 1487 1489 1490 1490 1490 1489 1488 1490 1491 1490 1489 1489 1491 1490 1490 1490 1490 1489 1482 1484 1486 1481 1477 1474 1467 1462 1458 1454 1451 1449 1445
1393 1407 1418 1427 1435 1443 1450 1455 1459 1461 1463 1467 1468 1467 1469 1471 1472 1473 1473 1477 1477 1478 1480 1488 1491 1491 1491 1491 1490 1490 1491 1493 1494 1495 1493 1492 1491 1492 1491 1491 1483 1484 1484 1483 1478 1473 1468 1461 1458 1455 1451 1447 1445 1443
1389 1402 1414 1425 1433 1441 1447 1453 1456 1459 1463 1466 1469 1469 1471 1471 1472 1474 1476 1479 1477 1479 1481 1489 1492 1494 1492 1492 1491 1492 1493 1493 1495 1497 1497 1496 1494 1493 1492 1492 1483 1482 1479 1475 1470 1466 1460 1457 1454 1451 1447 1443 1440 1439
1385 1399 1412 1422 1431 1439 1446 1450 1455 1458 1463 1466 1469 1470 1473 1474 1476 1476 1475 1477 1478 1481 1483 1493 1497 1494 1494 1493 1493 1493 1493 1493 1494 1496 1498 1496 1496 1495 1494 1486 1483 1478 1472 1467 1465 1463 1459 1453 1449 1445 1442 1439 1435 1434
1382 1397 1409 1419 1429 1437 1443 1448 1454 1458 1462 1466 1467 1473 1475 1476 1477 1479 1479 1480 1480 1486 1487 1494 1501 1503 1493 1493 1492 1492 1492 1493 1494 1496 1496 1499 1499 1496 1489 1484 1478 1474 1470 1464 1457 1454 1452 1450 1446 1442 1437 1434 1432 1430
1382 1395 1406 1417 1428 1435 1441 1447 1453 1457 1461 1466 1469 1475 1473 1476 1477 1480 1481 1482 1484 1488 1490 1495 1498 1497 1497 1494 1494 1494 1492 1492 1495 1496 1495 1496 1492 1486 1484 1482 1478 1472 1467 1461 1454 1449 1448 1444 1441 1437 1433 1431 1429 1427
1382 1395 1406 1417 1426 1432 1440 1447 1451 1455 1463 1465 1470 1472 1475 1477 1479 1482 1484 1485 1490 1494 1493 1495 1496 1496 1497 1498 1496 1494 1494 1491 1498 1496 1496 1494 1489 1484 1483 1480 1475 1470 1465 1461 1456 1451 1448 1445 1439 1435 1432 1429 1427 1425
1384 1396 1406 1417 1424 1432 1440 1445 1449 1456 1459 1464 1469 1472 1477 1479 1481 1485 1495 1492 1493 1496 1494 1494 1494 1494 1495 1495 1494 1493 1492 1493 1493 1494 1493 1491 1486 1483 1481 1477 1474 1470 1465 1460 1456 1449 1444 1441 1437 1434 1432 1428 1426 1423
1386 1396 1407 1416 1424 1433 1438 1443 1451 1456 1458 1465 1468 1471 1476 1482 1488 1494 1498 1501 1498 1491 1492 1492 1492 1491 1492 1494 1493 1491 1488 1487 1490 1490 1489 1485 1481 1480 1477 1474 1470 1468 1464 1459 1454 1449 1443 1438 1435 1432 1430 1426 1425 1423
1387 1399 1408 1416 1426 1431 1438 1445 1452 1454 1459 1463 1464 1476 1479 1487 1486 1485 1485 1485 1487 1488 1489 1490 1491 1491 1491 1492 1492 1490 1486 1484 1484 1491 1485 1479 1476 1475 1473 1471 1467 1462 1459 1456 1452 1447 1443 1438 1433 1431 1429 1427 1425 1422
1389 1401 1411 1420 1425 1433 1439 1446 1449 1456 1460 1461 1464 1477 1479 1478 1479 1480 1481 1483 1485 1486 1489 1490 1491 1490 1489 1490 1489 1486 1483 1480 1487 1486 1480 1474 1472 1469 1467 1464 1461 1458 1455 1451 1449 1444 1440 1437 1433 1429 1426 1424 1423 1420
1393 1403 1412 1418 1426 1433 1439 1444 1452 1456 1457 1460 1465 1473 1475 1478 1481 1482 1482 1484 1485 1487 1489 1492 1491 1492 1489 1487 1488 1486 1479 1474 1476 1472 1471 1470 1469 1467 1463 1459 1456 1453 1450 1447 1444 1441 1437 1433 1431 1427 1424 1421 1421 1419
1392 1398 1411 1420 1428 1434 1441 1449 1452 1454 1456 1459 1464 1465 1470 1473 1476 1479 1482 1483 1486 1488 1489 1490 1495 1490 1490 1489 1486 1480 1474 1469 1466 1466 1467 1466 1463 1459 1456 1453 1450 1448 1445 1441 1438 1435 1432 1429 1426 1424 1420 1419 1419 1417
1393 1402 1410 1419 1427 1435 1444 1447 1450 1453 1455 1460 1462 1466 1469 1472 1474 1477 1479 1480 1484 1487 1487 1488 1486 1491 1491 1495 1484 1471 1467 1466 1465 1462 1460 1459 1457 1455 1451 1448 1445 1442 1438 1435 1431 1428 1426 1424 1421 1420 1417 1415 1413 1413
1394 1404 1415 1423 1429 1436 1442 1448 1451 1452 1458 1460 1462 1466 1469 1471 1474 1476 1478 1481 1484 1485 1486 1485 1486 1488 1479 1471 1467 1465 1465 1464 1461 1458 1456 1455 1452 1449 1447 1444 1441 1438 1434 1430 1426 1422 1419 1417 1415 1414 1413 1413 1412 1410
1404 1412 1418 1426 1431 1434 1442 1449 1451 1451 1456 1460 1463 1466 1468 1469 1471 1473 1477 1479 1481 1483 1481 1480 1474 1468 1467 1466 1466 1464 1462 1459 1457 1452 1449 1447 1446 1443 1442 1440 1437 1433 1428 1425 1422 1419 1414 1410 1409 1408 1407 1407 1407 1406
1408 1416 1424 1428 1431 1437 1445 1448 1449 1454 1457 1459 1463 1466 1467 1468 1470 1472 1474 1477 1480 1476 1470 1465 1462 1461 1462 1462 1461 1459 1456 1454 1450 1447 1444 1440 1439 1437 1436 1435 1430 1427 1424 1420 1417 1413 1410 1406 1403 1402 1401 1400 1400 1401
1409 1419 1424 1428 1435 1441 1446 1448 1450 1454 1458 1461 1463 1463 1465 1467 1468 1469 1471 1475 1470 1463 1461 1458 1457 1456 1455 1454 1452 1449 1447 1444 1442 1440 1438 1437 1434 1432 1431 1430 1427 1423 1418 1415 1411 1407 1404 1401 1398 1396 1395 1394 1394 1395
1411 1421 1427 1432 1436 1444 1452 1450 1451 1455 1458 1461 1463 1465 1467 1467 1467 1469 1470 1466 1458 1454 1454 1453 1452 1451 1449 1448 1446 1446 1443 1440 1439 1437 1435 1433 1429 1427 1425 1423 1421 1416 1410 1407 1405 1401 1397 1396 1392 1390 1390 1390 1390 1389
1416 1422 1428 1434 1441 1449 1451 1451 1452 1456 1461 1462 1465 1468 1468 1468 1468 1470 1467 1455 1450 1449 1448 1448 1447 1446 1446 1446 1444 1442 1441 1437 1434 1433 1432 1426 1421 1420 1419 1414 1411 1408 1404 1400 1397 1393 1390 1388 1386 1384 1383 1384 1384 1385
1419 1429 1430 1438 1442 1447 1450 1453 1455 1459 1461 1463 1466 1467 1467 1467 1469 1470 1462 1449 1446 1444 1443 1443 1443 1443 1442 1440 1437 1436 1436 1433 1427 1425 1423 1420 1414 1411 1408 1405 1401 1399 1396 1393 1390 1386 1384 1383 1380 1378 1378 1378 1378 1379
1423 1428 1431 1434 1440 1443 1448 1453 1456 1457 1460 1467 1465 1465 1465 1466 1469 1461 1450 1442 1441 1441 1441 1441 1440 1439 1437 1436 1431 1428 1427 1426 1421 1416 1412 1410 1406 1404 1400 1396 1391 1387 1389 1385 1381 1379 1377 1376 1375 1373 1373 1373 1373 1374
1425 1429 1431 1434 1436 1437 1442 1447 1451 1455 1461 1461 1458 1462 1465 1468 1462 1444 1438 1437 1437 1437 1436 1436 1436 1434 1431 1427 1424 1421 1419 1418 1414 1409 1404 1401 1399 1397 1395 1390 1384 1382 1379 1376 1373 1371 1369 1368 1368 1368 1368 1368 1368 1368
1418 1422 1426 1430 1432 1436 1441 1445 1447 1448 1447 1448 1450 1457 1455 1450 1442 1435 1434 1435 1435 1433 1430 1428 1427 1425 1421 1418 1415 1411 1409 1408 1404 1401 1397 1395 1393 1390 1387 1383 1378 1374 1371 1369 1366 1364 1363 1362 1361 1362 1362 1363 1363 1364
1418 1420 1425 1430 1432 1434 1435 1437 1437 1437 1436 1437 1439 1439 1435 1431 1431 1431 1431 1431 1429 1426 1421 1417 1415 1414 1411 1410 1408 1406 1404 1401 1397 1393 1390 1386 1383 1382 1378 1374 1370 1367 1365 1362 1361 1359 1357 1356 1356 1355 1356 1357 1358 1359
1417 1419 1422 1426 1429 1431 1428 1431 1430 1431 1431 1432 1430 1428 1427 1424 1425 1425 1422 1422 1420 1415 1412 1410 1407 1406 1405 1403 1400 1399 1400 1397 1393 1390 1385 1381 1378 1375 1371 1368 1364 1361 1358 1355 1354 1353 1351 1351 1350 1350 1350 1350 1351 1352
1415 1419 1422 1424 1425 1424 1425 1426 1426 1427 1427 1426 1425 1424 1422 1419 1414 1413 1411 1411 1408 1406 1404 1403 1402 1402 1400 1398 1395 1391 1389 1389 1386 1383 1379 1376 1373 1370 1367 1364 1360 1357 1355 1352 1350 1348 1347 1346 1346 1345 1345 1345 1345 1345
1417 1420 1421 1424 1423 1422 1422 1422 1422 1421 1418 1418 1419 1419 1419 1417 1410 1404 1403 1402 1401 1401 1401 1400 1398 1394 1393 1390 1388 1386 1382 1380 1378 1375 1372 1370 1367 1365 1362 1359 1356 1353 1351 1349 1347 1345 1344 1343 1342 1342 1341 1341 1341 1341
1418 1420 1421 1420 1419 1417 1418 1420 1419 1418 1417 1415 1413 1413 1412 1412 1406 1399 1397 1397 1398 1398 1396 1394 1391 1388 1385 1383 1380 1377 1375 1373 1370 1368 1366 1364 1362 1360 1357 1354 1352 1349 1347 1345 1343 1342 1340 1339 1338 1338 1337 1337 1337 1336